User: anonymous   Login
Location: Caltech
(34.1382°N, 118.1253°W)
Time: 12:17:23
(UTC-08:00)
Language:

PAYLOAD A - Orbit

View from above orbital plane
View from above orbital plane
View from above satellite
View from above satellite

Ground track
Ground track

The orbit data is extracted from the following two-line orbital elements,

1 27840U 03031A   16341.95937533 -.00000003 +00000-0 +12727-4 0  9994
2 27840 098.1987 341.8336 0097833 339.2546 020.4683 14.38870489705574
Epoch (UTC): 06 December 2016 23:01:30
Eccentricity: 0.0097833
inclination: 98.1987°
perigee height: 692 km
apogee height: 832 km
right ascension of ascending node: 341.8336°
argument of perigee: 339.2546°
revolutions per day: 14.38870489
mean anomaly at epoch: 20.4683°
orbit number at epoch: 70557

The dashed part of the orbit path shows where the satellite is in the earth's shadow,  

DLR